Weather in Limbazi

Latvia     57˚30′36″N   24˚42′49″E
temp.,
°C
wind,
m/s
gust,
m/s
humid.,
%
clouds,
%
prec.,
mm/h
press.,
hPa
HPBL,
m
28 november, sat
sat2823:00nne388545 0.0 1017691
02:00+1˚nne398769 0.0 1018682
05:00+2˚nne498899 0.1 1019758
08:00+1˚nne4108198 0.1 1020713
11:00+2˚nne498699 0.0 1022860
14:00+2˚ne498796 0.1 1022818
17:00+2˚ne3985100 0.1 1023727
20:00+1˚ene3887100 0.1 1025649
29 november, sun
sun2923:00+1˚ene3789100 0.0 1026616
02:00+1˚ene378999 0.1 1026607
05:00ene3688100 0.1 1026474
08:00ne3683100 0.1 1026439
11:00ne3686100 0.1 1026477
14:00ne468299 0.1 1025668
17:00−1˚ne4783100 0.0 1023717
20:00−1˚ne378998 0.1 1023637
30 november, mon
mon3023:00−1˚ne369086 0.1 1022443
02:00−1˚ne259387 0.1 1021320
05:00−1˚e129298 0.1 1020193
08:00−2˚ese129792 0.1 102031
11:00−1˚s248943 0.0 1020324
14:00ssw248370 0.0 1020537
17:00−1˚s358698 0.0 1019471
20:00−1˚s378799 0.1 1019419
1 december, tue
tue123:00−1˚s499097 0.1 1019464
02:00−1˚s498999 0.2 1019494
05:00ssw4891100 0.0 1019545
08:00+1˚ssw4996100 0.2 1020582
11:00+1˚ssw51090100 0.1 1021467
14:00+1˚ssw5987100 0.1 1023551
17:00ssw41089100 0.0 1024578
20:00ssw4987100 0.1 1026591
2 december, wed
wed223:00ssw4884100 0.0 1027626
02:00−1˚s3883100 0.0 1028567
05:00−1˚s3785100 0.0 1028529
08:00−1˚s3790100 0.0 1029435
11:00−1˚sse3683100 0.0 1029497
14:00−1˚sse3676100 0.0 1029544
17:00−2˚sse278399 0.0 1028422
20:00−2˚sse388475 0.0 1028397